Year,Month,Day,Hour,Minute,Value (Times are PST for temperature in C)
2012,05,25,00,00,7.90
2012,05,25,00,01,7.90
2012,05,25,00,02,7.90
2012,05,25,00,03,7.80
2012,05,25,00,04,7.80
2012,05,25,00,05,7.80
2012,05,25,00,06,7.80
2012,05,25,00,07,7.80
2012,05,25,00,08,7.80
2012,05,25,00,09,7.80
2012,05,25,00,10,7.80
2012,05,25,00,11,7.80
2012,05,25,00,12,7.70
2012,05,25,00,13,7.70
2012,05,25,00,14,7.70
2012,05,25,00,15,7.70
2012,05,25,00,16,7.70
2012,05,25,00,17,7.60
2012,05,25,00,18,7.60
2012,05,25,00,19,7.60
2012,05,25,00,20,7.60
2012,05,25,00,21,7.60
2012,05,25,00,22,7.60
2012,05,25,00,23,7.60
2012,05,25,00,24,7.60
2012,05,25,00,25,7.60
2012,05,25,00,26,7.60
2012,05,25,00,27,7.60
2012,05,25,00,28,7.50
2012,05,25,00,29,7.50
2012,05,25,00,30,7.50
2012,05,25,00,31,7.50
2012,05,25,00,32,7.50
2012,05,25,00,33,7.50
2012,05,25,00,34,7.50
2012,05,25,00,35,7.50
2012,05,25,00,36,7.40
2012,05,25,00,37,7.40
2012,05,25,00,38,7.40
2012,05,25,00,39,7.40
2012,05,25,00,40,7.40
2012,05,25,00,41,7.40
2012,05,25,00,42,7.30
2012,05,25,00,43,7.30
2012,05,25,00,44,7.30
2012,05,25,00,45,7.30
2012,05,25,00,46,7.30
2012,05,25,00,47,7.30
2012,05,25,00,48,7.30
2012,05,25,00,49,7.40
2012,05,25,00,50,7.40
2012,05,25,00,51,7.40
2012,05,25,00,52,7.40
2012,05,25,00,53,7.40
2012,05,25,00,54,7.40
2012,05,25,00,55,7.40
2012,05,25,00,56,7.50
2012,05,25,00,57,7.50
2012,05,25,00,58,7.50
2012,05,25,00,59,7.60
2012,05,25,01,00,7.60
2012,05,25,01,01,7.60
2012,05,25,01,02,7.60
2012,05,25,01,03,7.60
2012,05,25,01,04,7.60
2012,05,25,01,05,7.60
2012,05,25,01,06,7.60
2012,05,25,01,07,7.60
2012,05,25,01,08,7.50
2012,05,25,01,09,7.50
2012,05,25,01,10,7.50
2012,05,25,01,11,7.50
2012,05,25,01,12,7.50
2012,05,25,01,13,7.50
2012,05,25,01,14,7.50
2012,05,25,01,15,7.50
2012,05,25,01,16,7.40
2012,05,25,01,17,7.40
2012,05,25,01,18,7.40
2012,05,25,01,19,7.40
2012,05,25,01,20,7.40
2012,05,25,01,21,7.40
2012,05,25,01,22,7.40
2012,05,25,01,23,7.40
2012,05,25,01,24,7.30
2012,05,25,01,25,7.30
2012,05,25,01,26,7.30
2012,05,25,01,27,7.30
2012,05,25,01,28,7.30
2012,05,25,01,29,7.30
2012,05,25,01,30,7.30
2012,05,25,01,31,7.30
2012,05,25,01,32,7.30
2012,05,25,01,33,7.30
2012,05,25,01,34,7.30
2012,05,25,01,35,7.30
2012,05,25,01,36,7.30
2012,05,25,01,37,7.30
2012,05,25,01,38,7.30
2012,05,25,01,39,7.30
2012,05,25,01,40,7.20
2012,05,25,01,41,7.20
2012,05,25,01,42,7.20
2012,05,25,01,43,7.20
2012,05,25,01,44,7.20
2012,05,25,01,45,7.20
2012,05,25,01,46,7.20
2012,05,25,01,47,7.20
2012,05,25,01,48,7.20
2012,05,25,01,49,7.20
2012,05,25,01,50,7.20
2012,05,25,01,51,7.20
2012,05,25,01,52,7.20
2012,05,25,01,53,7.20
2012,05,25,01,54,7.10
2012,05,25,01,55,7.10
2012,05,25,01,56,7.10
2012,05,25,01,57,7.10
2012,05,25,01,58,7.10
2012,05,25,01,59,7.10
2012,05,25,02,00,7.10
2012,05,25,02,01,7.10
2012,05,25,02,02,7.10
2012,05,25,02,03,7.10
2012,05,25,02,04,7.10
2012,05,25,02,05,7.10
2012,05,25,02,06,7.00
2012,05,25,02,07,7.00
2012,05,25,02,08,7.00
2012,05,25,02,09,7.00
2012,05,25,02,10,7.00
2012,05,25,02,11,7.00
2012,05,25,02,12,7.00
2012,05,25,02,13,7.00
2012,05,25,02,14,7.00
2012,05,25,02,15,7.00
2012,05,25,02,16,7.00
2012,05,25,02,17,7.00
2012,05,25,02,18,7.00
2012,05,25,02,19,7.00
2012,05,25,02,20,7.00
2012,05,25,02,21,7.00
2012,05,25,02,22,7.00
2012,05,25,02,23,7.00
2012,05,25,02,24,7.00
2012,05,25,02,25,6.90
2012,05,25,02,26,6.90
2012,05,25,02,27,6.90
2012,05,25,02,28,6.90
2012,05,25,02,29,6.90
2012,05,25,02,30,6.90
2012,05,25,02,31,6.90
2012,05,25,02,32,6.80
2012,05,25,02,33,6.80
2012,05,25,02,34,6.80
2012,05,25,02,35,6.80
2012,05,25,02,36,6.80
2012,05,25,02,37,6.80
2012,05,25,02,38,6.70
2012,05,25,02,39,6.70
2012,05,25,02,40,6.70
2012,05,25,02,41,6.70
2012,05,25,02,42,6.70
2012,05,25,02,43,6.70
2012,05,25,02,44,6.70
2012,05,25,02,45,6.70
2012,05,25,02,46,6.70
2012,05,25,02,47,6.70
2012,05,25,02,48,6.70
2012,05,25,02,49,6.70
2012,05,25,02,50,6.60
2012,05,25,02,51,6.60
2012,05,25,02,52,6.60
2012,05,25,02,53,6.60
2012,05,25,02,54,6.60
2012,05,25,02,55,6.60
2012,05,25,02,56,6.60
2012,05,25,02,57,6.60
2012,05,25,02,58,6.60
2012,05,25,02,59,6.60
2012,05,25,03,00,6.60
2012,05,25,03,01,6.60
2012,05,25,03,02,6.60
2012,05,25,03,03,6.60
2012,05,25,03,04,6.60
2012,05,25,03,05,6.60
2012,05,25,03,06,6.50
2012,05,25,03,07,6.60
2012,05,25,03,08,6.60
2012,05,25,03,09,6.60
2012,05,25,03,10,6.60
2012,05,25,03,11,6.60
2012,05,25,03,12,6.60
2012,05,25,03,13,6.70
2012,05,25,03,14,6.70
2012,05,25,03,15,6.70
2012,05,25,03,16,6.60
2012,05,25,03,17,6.70
2012,05,25,03,18,6.60
2012,05,25,03,19,6.60
2012,05,25,03,20,6.60
2012,05,25,03,21,6.60
2012,05,25,03,22,6.60
2012,05,25,03,23,6.60
2012,05,25,03,24,6.60
2012,05,25,03,25,6.60
2012,05,25,03,26,6.60
2012,05,25,03,27,6.60
2012,05,25,03,28,6.60
2012,05,25,03,29,6.60
2012,05,25,03,30,6.60
2012,05,25,03,31,6.60
2012,05,25,03,32,6.60
2012,05,25,03,33,6.60
2012,05,25,03,34,6.60
2012,05,25,03,35,6.60
2012,05,25,03,36,6.60
2012,05,25,03,37,6.60
2012,05,25,03,38,6.60
2012,05,25,03,39,6.50
2012,05,25,03,40,6.60
2012,05,25,03,41,6.60
2012,05,25,03,42,6.60
2012,05,25,03,43,6.60
2012,05,25,03,44,6.60
2012,05,25,03,45,6.60
2012,05,25,03,46,6.50
2012,05,25,03,47,6.60
2012,05,25,03,48,6.50
2012,05,25,03,49,6.60
2012,05,25,03,50,6.50
2012,05,25,03,51,6.50
2012,05,25,03,52,6.50
2012,05,25,03,53,6.50
2012,05,25,03,54,6.40
2012,05,25,03,55,6.40
2012,05,25,03,56,6.40
2012,05,25,03,57,6.40
2012,05,25,03,58,6.30
2012,05,25,03,59,6.30
2012,05,25,04,00,6.30
2012,05,25,04,01,6.30
2012,05,25,04,02,6.20
2012,05,25,04,03,6.20
2012,05,25,04,04,6.20
2012,05,25,04,05,6.20
2012,05,25,04,06,6.20
2012,05,25,04,07,6.20
2012,05,25,04,08,6.20
2012,05,25,04,09,6.10
2012,05,25,04,10,6.10
2012,05,25,04,11,6.10
2012,05,25,04,12,6.10
2012,05,25,04,13,6.10
2012,05,25,04,14,6.10
2012,05,25,04,15,6.10
2012,05,25,04,16,6.10
2012,05,25,04,17,6.10
2012,05,25,04,18,6.10
2012,05,25,04,19,6.10
2012,05,25,04,20,6.10
2012,05,25,04,21,6.00
2012,05,25,04,22,6.00
2012,05,25,04,23,6.00
2012,05,25,04,24,6.00
2012,05,25,04,25,6.00
2012,05,25,04,26,6.00
2012,05,25,04,27,6.00
2012,05,25,04,28,6.00
2012,05,25,04,29,6.10
2012,05,25,04,30,6.10
2012,05,25,04,31,6.10
2012,05,25,04,32,6.00
2012,05,25,04,33,6.00
2012,05,25,04,34,6.00
2012,05,25,04,35,6.00
2012,05,25,04,36,6.00
2012,05,25,04,37,6.00
2012,05,25,04,38,6.00
2012,05,25,04,39,6.00
2012,05,25,04,40,6.10
2012,05,25,04,41,6.10
2012,05,25,04,42,6.10
2012,05,25,04,43,6.10
2012,05,25,04,44,6.10
2012,05,25,04,45,6.20
2012,05,25,04,46,6.20
2012,05,25,04,47,6.20
2012,05,25,04,48,6.20
2012,05,25,04,49,6.20
2012,05,25,04,50,6.20
2012,05,25,04,51,6.20
2012,05,25,04,52,6.20
2012,05,25,04,53,6.20
2012,05,25,04,54,6.20
2012,05,25,04,55,6.20
2012,05,25,04,56,6.20
2012,05,25,04,57,6.20
2012,05,25,04,58,6.10
2012,05,25,04,59,6.10
2012,05,25,05,00,6.10
2012,05,25,05,01,6.10
2012,05,25,05,02,6.10
2012,05,25,05,03,6.10
2012,05,25,05,04,6.10
2012,05,25,05,05,6.10
2012,05,25,05,06,6.10
2012,05,25,05,07,6.00
2012,05,25,05,08,6.00
2012,05,25,05,09,6.00
2012,05,25,05,10,6.00
2012,05,25,05,11,6.00
2012,05,25,05,12,5.90
2012,05,25,05,13,5.90
2012,05,25,05,14,5.90
2012,05,25,05,15,5.90
2012,05,25,05,16,5.90
2012,05,25,05,17,5.90
2012,05,25,05,18,5.90
2012,05,25,05,19,5.90
2012,05,25,05,20,5.90
2012,05,25,05,21,5.90
2012,05,25,05,22,5.90
2012,05,25,05,23,5.90
2012,05,25,05,24,5.90
2012,05,25,05,25,5.90
2012,05,25,05,26,5.90
2012,05,25,05,27,5.90
2012,05,25,05,28,5.90
2012,05,25,05,29,5.90
2012,05,25,05,30,5.90
2012,05,25,05,31,6.00
2012,05,25,05,32,6.10
2012,05,25,05,33,6.20
2012,05,25,05,34,6.20
2012,05,25,05,35,6.30
2012,05,25,05,36,6.30
2012,05,25,05,37,6.30
2012,05,25,05,38,6.30
2012,05,25,05,39,6.30
2012,05,25,05,40,6.30
2012,05,25,05,41,6.30
2012,05,25,05,42,6.30
2012,05,25,05,43,6.30
2012,05,25,05,44,6.30
2012,05,25,05,45,6.30
2012,05,25,05,46,6.20
2012,05,25,05,47,6.20
2012,05,25,05,48,6.20
2012,05,25,05,49,6.20
2012,05,25,05,50,6.20
2012,05,25,05,51,6.20
2012,05,25,05,52,6.20
2012,05,25,05,53,6.20
2012,05,25,05,54,6.20
2012,05,25,05,55,6.20
2012,05,25,05,56,6.30
2012,05,25,05,57,6.30
2012,05,25,05,58,6.30
2012,05,25,05,59,6.30
2012,05,25,06,00,6.30
2012,05,25,06,01,6.30
2012,05,25,06,02,6.40
2012,05,25,06,03,6.40
2012,05,25,06,04,6.40
2012,05,25,06,05,6.40
2012,05,25,06,06,6.40
2012,05,25,06,07,6.40
2012,05,25,06,08,6.40
2012,05,25,06,09,6.40
2012,05,25,06,10,6.40
2012,05,25,06,11,6.40
2012,05,25,06,12,6.40
2012,05,25,06,13,6.40
2012,05,25,06,14,6.40
2012,05,25,06,15,6.40
2012,05,25,06,16,6.50
2012,05,25,06,17,6.50
2012,05,25,06,18,6.50
2012,05,25,06,19,6.50
2012,05,25,06,20,6.50
2012,05,25,06,21,6.50
2012,05,25,06,22,6.50
2012,05,25,06,23,6.60
2012,05,25,06,24,6.60
2012,05,25,06,25,6.60
2012,05,25,06,26,6.60
2012,05,25,06,27,6.60
2012,05,25,06,28,6.60
2012,05,25,06,29,6.70
2012,05,25,06,30,6.70
2012,05,25,06,31,6.70
2012,05,25,06,32,6.80
2012,05,25,06,33,6.80
2012,05,25,06,34,6.90
2012,05,25,06,35,6.90
2012,05,25,06,36,7.00
2012,05,25,06,37,7.00
2012,05,25,06,38,7.10
2012,05,25,06,39,7.10
2012,05,25,06,40,7.10
2012,05,25,06,41,7.10
2012,05,25,06,42,7.20
2012,05,25,06,43,7.20
2012,05,25,06,44,7.20
2012,05,25,06,45,7.30
2012,05,25,06,46,7.30
2012,05,25,06,47,7.40
2012,05,25,06,48,7.40
2012,05,25,06,49,7.50
2012,05,25,06,50,7.50
2012,05,25,06,51,7.60
2012,05,25,06,52,7.60
2012,05,25,06,53,7.70
2012,05,25,06,54,7.70
2012,05,25,06,55,7.80
2012,05,25,06,56,7.80
2012,05,25,06,57,7.90
2012,05,25,06,58,8.00
2012,05,25,06,59,8.00
2012,05,25,07,00,8.10
2012,05,25,07,01,8.10
2012,05,25,07,02,8.20
2012,05,25,07,03,8.20
2012,05,25,07,04,8.30
2012,05,25,07,05,8.30
2012,05,25,07,06,8.40
2012,05,25,07,07,8.40
2012,05,25,07,08,8.50
2012,05,25,07,09,8.50
2012,05,25,07,10,8.60
2012,05,25,07,11,8.60
2012,05,25,07,12,8.70
2012,05,25,07,13,8.80
2012,05,25,07,14,8.80
2012,05,25,07,15,8.90
2012,05,25,07,16,8.90
2012,05,25,07,17,9.00
2012,05,25,07,18,9.00
2012,05,25,07,19,9.10
2012,05,25,07,20,9.10
2012,05,25,07,21,9.20
2012,05,25,07,22,9.20
2012,05,25,07,23,9.30
2012,05,25,07,24,9.30
2012,05,25,07,25,9.30
2012,05,25,07,26,9.40
2012,05,25,07,27,9.40
2012,05,25,07,28,9.40
2012,05,25,07,29,9.50
2012,05,25,07,30,9.50
2012,05,25,07,31,9.60
2012,05,25,07,32,9.60
2012,05,25,07,33,9.70
2012,05,25,07,34,9.70
2012,05,25,07,35,9.70
2012,05,25,07,36,9.80
2012,05,25,07,37,9.80
2012,05,25,07,38,9.90
2012,05,25,07,39,9.90
2012,05,25,07,40,10.00
2012,05,25,07,41,10.10
2012,05,25,07,42,10.10
2012,05,25,07,43,10.20
2012,05,25,07,44,10.20
2012,05,25,07,45,10.30
2012,05,25,07,46,10.30
2012,05,25,07,47,10.30
2012,05,25,07,48,10.40
2012,05,25,07,49,10.40
2012,05,25,07,50,10.50
2012,05,25,07,51,10.50
2012,05,25,07,52,10.60
2012,05,25,07,53,10.60
2012,05,25,07,54,10.70
2012,05,25,07,55,10.70
2012,05,25,07,56,10.80
2012,05,25,07,57,10.80
2012,05,25,07,58,10.90
2012,05,25,07,59,10.90
2012,05,25,08,00,10.90
2012,05,25,08,01,11.00
2012,05,25,08,02,11.10
2012,05,25,08,03,11.10
2012,05,25,08,04,11.20
2012,05,25,08,05,11.20
2012,05,25,08,06,11.30
2012,05,25,08,07,11.30
2012,05,25,08,08,11.40
2012,05,25,08,09,11.50
2012,05,25,08,10,11.50
2012,05,25,08,11,11.60
2012,05,25,08,12,11.70
2012,05,25,08,13,11.70
2012,05,25,08,14,11.80
2012,05,25,08,15,11.90
2012,05,25,08,16,11.90
2012,05,25,08,17,12.00
2012,05,25,08,18,12.10
2012,05,25,08,19,12.10
2012,05,25,08,20,12.20
2012,05,25,08,21,12.30
2012,05,25,08,22,12.40
2012,05,25,08,23,12.50
2012,05,25,08,24,12.60
2012,05,25,08,25,12.70
2012,05,25,08,26,12.70
2012,05,25,08,27,12.80
2012,05,25,08,28,12.90
2012,05,25,08,29,13.00
2012,05,25,08,30,13.10
2012,05,25,08,31,13.20
2012,05,25,08,32,13.30
2012,05,25,08,33,13.40
2012,05,25,08,34,13.50
2012,05,25,08,35,13.60
2012,05,25,08,36,13.70
2012,05,25,08,37,13.80
2012,05,25,08,38,13.90
2012,05,25,08,39,14.00
2012,05,25,08,40,14.10
2012,05,25,08,41,14.10
2012,05,25,08,42,14.20
2012,05,25,08,43,14.20
2012,05,25,08,44,14.30
2012,05,25,08,45,14.30
2012,05,25,08,46,14.30
2012,05,25,08,47,14.40
2012,05,25,08,48,14.40
2012,05,25,08,49,14.50
2012,05,25,08,50,14.50
2012,05,25,08,51,14.60
2012,05,25,08,52,14.60
2012,05,25,08,53,14.60
2012,05,25,08,54,14.60
2012,05,25,08,55,14.60
2012,05,25,08,56,14.60
2012,05,25,08,57,14.60
2012,05,25,08,58,14.60
2012,05,25,08,59,14.60
2012,05,25,09,00,14.60
2012,05,25,09,01,14.60
2012,05,25,09,02,14.70
2012,05,25,09,03,14.70
2012,05,25,09,04,14.80
2012,05,25,09,05,14.80
2012,05,25,09,06,14.90
2012,05,25,09,07,14.90
2012,05,25,09,08,14.90
2012,05,25,09,09,14.90
2012,05,25,09,10,14.90
2012,05,25,09,11,14.90
2012,05,25,09,12,15.00
2012,05,25,09,13,15.00
2012,05,25,09,14,15.00
2012,05,25,09,15,15.00
2012,05,25,09,16,15.10
2012,05,25,09,17,15.10
2012,05,25,09,18,15.20
2012,05,25,09,19,15.20
2012,05,25,09,20,15.30
2012,05,25,09,21,15.30
2012,05,25,09,22,15.40
2012,05,25,09,23,15.40
2012,05,25,09,24,15.40
2012,05,25,09,25,15.40
2012,05,25,09,26,15.40
2012,05,25,09,27,15.40
2012,05,25,09,28,15.40
2012,05,25,09,29,15.40
2012,05,25,09,30,15.40
2012,05,25,09,31,15.40
2012,05,25,09,32,15.50
2012,05,25,09,33,15.50
2012,05,25,09,34,15.60
2012,05,25,09,35,15.60
2012,05,25,09,36,15.60
2012,05,25,09,37,15.70
2012,05,25,09,38,15.70
2012,05,25,09,39,15.80
2012,05,25,09,40,15.80
2012,05,25,09,41,15.90
2012,05,25,09,42,15.90
2012,05,25,09,43,16.00
2012,05,25,09,44,16.00
2012,05,25,09,45,16.10
2012,05,25,09,46,16.10
2012,05,25,09,47,16.20
2012,05,25,09,48,16.20
2012,05,25,09,49,16.30
2012,05,25,09,50,16.30
2012,05,25,09,51,16.40
2012,05,25,09,52,16.40
2012,05,25,09,53,16.50
2012,05,25,09,54,16.60
2012,05,25,09,55,16.60
2012,05,25,09,56,16.70
2012,05,25,09,57,16.70
2012,05,25,09,58,16.70
2012,05,25,09,59,16.70
2012,05,25,10,00,16.70
2012,05,25,10,01,16.70
2012,05,25,10,02,16.70
2012,05,25,10,03,16.70
2012,05,25,10,04,16.80
2012,05,25,10,05,16.80
2012,05,25,10,06,16.90
2012,05,25,10,07,17.00
2012,05,25,10,08,17.00
2012,05,25,10,09,17.10
2012,05,25,10,10,17.10
2012,05,25,10,11,17.20
2012,05,25,10,12,17.20
2012,05,25,10,13,17.30
2012,05,25,10,14,17.40
2012,05,25,10,15,17.40
2012,05,25,10,16,17.50
2012,05,25,10,17,17.60
2012,05,25,10,18,17.60
2012,05,25,10,19,17.70
2012,05,25,10,20,17.70
2012,05,25,10,21,17.70
2012,05,25,10,22,17.80
2012,05,25,10,23,17.80
2012,05,25,10,24,17.80
2012,05,25,10,25,17.90
2012,05,25,10,26,17.90
2012,05,25,10,27,17.90
2012,05,25,10,28,17.90
2012,05,25,10,29,17.80
2012,05,25,10,30,17.80
2012,05,25,10,31,17.80
2012,05,25,10,32,17.80
2012,05,25,10,33,17.80
2012,05,25,10,34,17.80
2012,05,25,10,35,17.90
2012,05,25,10,36,17.90
2012,05,25,10,37,17.90
2012,05,25,10,38,17.90
2012,05,25,10,39,17.90
2012,05,25,10,40,17.90
2012,05,25,10,41,17.90
2012,05,25,10,42,18.00
2012,05,25,10,43,18.00
2012,05,25,10,44,18.00
2012,05,25,10,45,18.10
2012,05,25,10,46,18.10
2012,05,25,10,47,18.20
2012,05,25,10,48,18.20
2012,05,25,10,49,18.20
2012,05,25,10,50,18.30
2012,05,25,10,51,18.30
2012,05,25,10,52,18.30
2012,05,25,10,53,18.40
2012,05,25,10,54,18.40
2012,05,25,10,55,18.40
2012,05,25,10,56,18.30
2012,05,25,10,57,18.30
2012,05,25,10,58,18.30
2012,05,25,10,59,18.30
2012,05,25,11,00,18.30
2012,05,25,11,01,18.30
2012,05,25,11,02,18.30
2012,05,25,11,03,18.30
2012,05,25,11,04,18.30
2012,05,25,11,05,18.30
2012,05,25,11,06,18.20
2012,05,25,11,07,18.20
2012,05,25,11,08,18.20
2012,05,25,11,09,18.20
2012,05,25,11,10,18.30
2012,05,25,11,11,18.30
2012,05,25,11,12,18.30
2012,05,25,11,13,18.30
2012,05,25,11,14,18.40
2012,05,25,11,15,18.50
2012,05,25,11,16,18.50
2012,05,25,11,17,18.60
2012,05,25,11,18,18.60
2012,05,25,11,19,18.60
2012,05,25,11,20,18.50
2012,05,25,11,21,18.50
2012,05,25,11,22,18.50
2012,05,25,11,23,18.40
2012,05,25,11,24,18.40
2012,05,25,11,25,18.40
2012,05,25,11,26,18.30
2012,05,25,11,27,18.30
2012,05,25,11,28,18.30
2012,05,25,11,29,18.30
2012,05,25,11,30,18.30
2012,05,25,11,31,18.40
2012,05,25,11,32,18.40
2012,05,25,11,33,18.40
2012,05,25,11,34,18.50
2012,05,25,11,35,18.50
2012,05,25,11,36,18.60
2012,05,25,11,37,18.60
2012,05,25,11,38,18.60
2012,05,25,11,39,18.70
2012,05,25,11,40,18.70
2012,05,25,11,41,18.70
2012,05,25,11,42,18.80
2012,05,25,11,43,18.80
2012,05,25,11,44,18.90
2012,05,25,11,45,18.90
2012,05,25,11,46,19.00
2012,05,25,11,47,19.10
2012,05,25,11,48,19.20
2012,05,25,11,49,19.20
2012,05,25,11,50,19.20
2012,05,25,11,51,19.20
2012,05,25,11,52,19.20
2012,05,25,11,53,19.20
2012,05,25,11,54,19.20
2012,05,25,11,55,19.30
2012,05,25,11,56,19.30
2012,05,25,11,57,19.30
2012,05,25,11,58,19.30
2012,05,25,11,59,19.30
2012,05,25,12,00,19.30
2012,05,25,12,01,19.30
2012,05,25,12,02,19.30
2012,05,25,12,03,19.30
2012,05,25,12,04,19.30
2012,05,25,12,05,19.30
2012,05,25,12,06,19.30
2012,05,25,12,07,19.30
2012,05,25,12,08,19.30
2012,05,25,12,09,19.30
2012,05,25,12,10,19.30
2012,05,25,12,11,19.30
2012,05,25,12,12,19.30
2012,05,25,12,13,19.30
2012,05,25,12,14,19.40
2012,05,25,12,15,19.40
2012,05,25,12,16,19.40
2012,05,25,12,17,19.40
2012,05,25,12,18,19.40
2012,05,25,12,19,19.40
2012,05,25,12,20,19.40
2012,05,25,12,21,19.50
2012,05,25,12,22,19.50
2012,05,25,12,23,19.50
2012,05,25,12,24,19.50
2012,05,25,12,25,19.60
2012,05,25,12,26,19.60
2012,05,25,12,27,19.70
2012,05,25,12,28,19.70
2012,05,25,12,29,19.80
2012,05,25,12,30,19.80
2012,05,25,12,31,19.90
2012,05,25,12,32,19.90
2012,05,25,12,33,20.00
2012,05,25,12,34,20.00
2012,05,25,12,35,20.10
2012,05,25,12,36,20.20
2012,05,25,12,37,20.20
2012,05,25,12,38,20.20
2012,05,25,12,39,20.20
2012,05,25,12,40,20.20
2012,05,25,12,41,20.20
2012,05,25,12,42,20.20
2012,05,25,12,43,20.30
2012,05,25,12,44,20.30
2012,05,25,12,45,20.30
2012,05,25,12,46,20.30
2012,05,25,12,47,20.30
2012,05,25,12,48,20.30
2012,05,25,12,49,20.30
2012,05,25,12,50,20.30
2012,05,25,12,51,20.30
2012,05,25,12,52,20.30
2012,05,25,12,53,20.30
2012,05,25,12,54,20.30
2012,05,25,12,55,20.30
2012,05,25,12,56,20.30
2012,05,25,12,57,20.30
2012,05,25,12,58,20.30
2012,05,25,12,59,20.20
2012,05,25,13,00,20.20
2012,05,25,13,01,20.20
2012,05,25,13,02,20.20
2012,05,25,13,03,20.20
2012,05,25,13,04,20.20
2012,05,25,13,05,20.30
2012,05,25,13,06,20.30
2012,05,25,13,07,20.30
2012,05,25,13,08,20.40
2012,05,25,13,09,20.50
2012,05,25,13,10,20.50
2012,05,25,13,11,20.60
2012,05,25,13,12,20.60
2012,05,25,13,13,20.60
2012,05,25,13,14,20.60
2012,05,25,13,15,20.70
2012,05,25,13,16,20.70
2012,05,25,13,17,20.80
2012,05,25,13,18,20.90
2012,05,25,13,19,20.90
2012,05,25,13,20,20.90
2012,05,25,13,21,21.00
2012,05,25,13,22,21.10
2012,05,25,13,23,21.10
2012,05,25,13,24,21.10
2012,05,25,13,25,21.00
2012,05,25,13,26,20.90
2012,05,25,13,27,20.90
2012,05,25,13,28,20.90
2012,05,25,13,29,20.90
2012,05,25,13,30,20.90
2012,05,25,13,31,21.00
2012,05,25,13,32,21.00
2012,05,25,13,33,21.10
2012,05,25,13,34,21.10
2012,05,25,13,35,21.10
2012,05,25,13,36,21.20
2012,05,25,13,37,21.20
2012,05,25,13,38,21.20
2012,05,25,13,39,21.20
2012,05,25,13,40,21.20
2012,05,25,13,41,21.10
2012,05,25,13,42,21.20
2012,05,25,13,43,21.20
2012,05,25,13,44,21.20
2012,05,25,13,45,21.20
2012,05,25,13,46,21.20
2012,05,25,13,47,21.30
2012,05,25,13,48,21.30
2012,05,25,13,49,21.30
2012,05,25,13,50,21.30
2012,05,25,13,51,21.40
2012,05,25,13,52,21.40
2012,05,25,13,53,21.40
2012,05,25,13,54,21.40
2012,05,25,13,55,21.40
2012,05,25,13,56,21.40
2012,05,25,13,57,21.40
2012,05,25,13,58,21.40
2012,05,25,13,59,21.40
2012,05,25,14,00,21.30
2012,05,25,14,01,21.30
2012,05,25,14,02,21.30
2012,05,25,14,03,21.30
2012,05,25,14,04,21.30
2012,05,25,14,05,21.30
2012,05,25,14,06,21.30
2012,05,25,14,07,21.30
2012,05,25,14,08,21.30
2012,05,25,14,09,21.40
2012,05,25,14,10,21.40
2012,05,25,14,11,21.40
2012,05,25,14,12,21.40
2012,05,25,14,13,21.50
2012,05,25,14,14,21.50
2012,05,25,14,15,21.60
2012,05,25,14,16,21.60
2012,05,25,14,17,21.70
2012,05,25,14,18,21.70
2012,05,25,14,19,21.70
2012,05,25,14,20,21.80
2012,05,25,14,21,21.80
2012,05,25,14,22,21.80
2012,05,25,14,23,21.70
2012,05,25,14,24,21.70
2012,05,25,14,25,21.70
2012,05,25,14,26,21.60
2012,05,25,14,27,21.60
2012,05,25,14,28,21.60
2012,05,25,14,29,21.60
2012,05,25,14,30,21.60
2012,05,25,14,31,21.60
2012,05,25,14,32,21.70
2012,05,25,14,33,21.70
2012,05,25,14,34,21.80
2012,05,25,14,35,21.80
2012,05,25,14,36,21.80
2012,05,25,14,37,21.90
2012,05,25,14,38,21.90
2012,05,25,14,39,21.90
2012,05,25,14,40,22.00
2012,05,25,14,41,22.00
2012,05,25,14,42,22.10
2012,05,25,14,43,22.10
2012,05,25,14,44,22.10
2012,05,25,14,45,22.10
2012,05,25,14,46,22.10
2012,05,25,14,47,22.10
2012,05,25,14,48,22.10
2012,05,25,14,49,22.20
2012,05,25,14,50,22.20
2012,05,25,14,51,22.20
2012,05,25,14,52,22.20
2012,05,25,14,53,22.20
2012,05,25,14,54,22.20
2012,05,25,14,55,22.20
2012,05,25,14,56,22.20
2012,05,25,14,57,22.10
2012,05,25,14,58,22.10
2012,05,25,14,59,22.10
2012,05,25,15,00,22.10
2012,05,25,15,01,22.10
2012,05,25,15,02,22.10
2012,05,25,15,03,22.10
2012,05,25,15,04,22.10
2012,05,25,15,05,22.00
2012,05,25,15,06,22.00
2012,05,25,15,07,21.90
2012,05,25,15,08,21.90
2012,05,25,15,09,21.80
2012,05,25,15,10,21.80
2012,05,25,15,11,21.80
2012,05,25,15,12,21.90
2012,05,25,15,13,21.90
2012,05,25,15,14,21.90
2012,05,25,15,15,22.00
2012,05,25,15,16,22.00
2012,05,25,15,17,22.10
2012,05,25,15,18,22.10
2012,05,25,15,19,22.10
2012,05,25,15,20,22.10
2012,05,25,15,21,22.10
2012,05,25,15,22,22.20
2012,05,25,15,23,22.20
2012,05,25,15,24,22.20
2012,05,25,15,25,22.20
2012,05,25,15,26,22.30
2012,05,25,15,27,22.30
2012,05,25,15,28,22.30
2012,05,25,15,29,22.30
2012,05,25,15,30,22.30
2012,05,25,15,31,22.30
2012,05,25,15,32,22.30
2012,05,25,15,33,22.30
2012,05,25,15,34,22.40
2012,05,25,15,35,22.40
2012,05,25,15,36,22.40
2012,05,25,15,37,22.40
2012,05,25,15,38,22.50
2012,05,25,15,39,22.50
2012,05,25,15,40,22.60
2012,05,25,15,41,22.60
2012,05,25,15,42,22.70
2012,05,25,15,43,22.70
2012,05,25,15,44,22.70
2012,05,25,15,45,22.60
2012,05,25,15,46,22.60
2012,05,25,15,47,22.60
2012,05,25,15,48,22.60
2012,05,25,15,49,22.60
2012,05,25,15,50,22.60
2012,05,25,15,51,22.60
2012,05,25,15,52,22.60
2012,05,25,15,53,22.60
2012,05,25,15,54,22.60
2012,05,25,15,55,22.60
2012,05,25,15,56,22.60
2012,05,25,15,57,22.50
2012,05,25,15,58,22.50
2012,05,25,15,59,22.40
2012,05,25,16,00,22.40
2012,05,25,16,01,22.50
2012,05,25,16,02,22.50
2012,05,25,16,03,22.50
2012,05,25,16,04,22.50
2012,05,25,16,05,22.50
2012,05,25,16,06,22.50
2012,05,25,16,07,22.50
2012,05,25,16,08,22.50
2012,05,25,16,09,22.50
2012,05,25,16,10,22.50
2012,05,25,16,11,22.50
2012,05,25,16,12,22.50
2012,05,25,16,13,22.50
2012,05,25,16,14,22.50
2012,05,25,16,15,22.50
2012,05,25,16,16,22.50
2012,05,25,16,17,22.50
2012,05,25,16,18,22.40
2012,05,25,16,19,22.40
2012,05,25,16,20,22.40
2012,05,25,16,21,22.40
2012,05,25,16,22,22.40
2012,05,25,16,23,22.40
2012,05,25,16,24,22.40
2012,05,25,16,25,22.40
2012,05,25,16,26,22.40
2012,05,25,16,27,22.40
2012,05,25,16,28,22.40
2012,05,25,16,29,22.40
2012,05,25,16,30,22.50
2012,05,25,16,31,22.50
2012,05,25,16,32,22.50
2012,05,25,16,33,22.50
2012,05,25,16,34,22.40
2012,05,25,16,35,22.40
2012,05,25,16,36,22.30
2012,05,25,16,37,22.30
2012,05,25,16,38,22.30
2012,05,25,16,39,22.30
2012,05,25,16,40,22.30
2012,05,25,16,41,22.30
2012,05,25,16,42,22.30
2012,05,25,16,43,22.30
2012,05,25,16,44,22.30
2012,05,25,16,45,22.30
2012,05,25,16,46,22.30
2012,05,25,16,47,22.30
2012,05,25,16,48,22.30
2012,05,25,16,49,22.30
2012,05,25,16,50,22.30
2012,05,25,16,51,22.30
2012,05,25,16,52,22.30
2012,05,25,16,53,22.30
2012,05,25,16,54,22.30
2012,05,25,16,55,22.30
2012,05,25,16,56,22.30
2012,05,25,16,57,22.40
2012,05,25,16,58,22.40
2012,05,25,16,59,22.50
2012,05,25,17,00,22.50
2012,05,25,17,01,22.50
2012,05,25,17,02,22.60
2012,05,25,17,03,22.60
2012,05,25,17,04,22.60
2012,05,25,17,05,22.60
2012,05,25,17,06,22.70
2012,05,25,17,07,22.70
2012,05,25,17,08,22.70
2012,05,25,17,09,22.70
2012,05,25,17,10,22.70
2012,05,25,17,11,22.70
2012,05,25,17,12,22.60
2012,05,25,17,13,22.60
2012,05,25,17,14,22.60
2012,05,25,17,15,22.50
2012,05,25,17,16,22.50
2012,05,25,17,17,22.50
2012,05,25,17,18,22.50
2012,05,25,17,19,22.60
2012,05,25,17,20,22.60
2012,05,25,17,21,22.60
2012,05,25,17,22,22.60
2012,05,25,17,23,22.60
2012,05,25,17,24,22.60
2012,05,25,17,25,22.70
2012,05,25,17,26,22.70
2012,05,25,17,27,22.80
2012,05,25,17,28,22.80
2012,05,25,17,29,22.80
2012,05,25,17,30,22.80
2012,05,25,17,31,22.80
2012,05,25,17,32,22.70
2012,05,25,17,33,22.70
2012,05,25,17,34,22.70
2012,05,25,17,35,22.70
2012,05,25,17,36,22.60
2012,05,25,17,37,22.60
2012,05,25,17,38,22.60
2012,05,25,17,39,22.60